Location: Le Castellard
(44.1862°N, 6.1301°E)
Time: 12:37:41
(UTC+00:00)

Nadezhda 1 Rocket - Pass Details

Date: 18 January 2020
Orbit: 942 x 1005 km, 83.0° (Epoch: 20 February)

Event Time Altitude Azimuth Distance (km) Brightness Sun altitude
Rises 04:52:45 0° 188° (S) 3,609 7.0 -23.5°
Reaches altitude 10° 04:55:14 10° 189° (S) 2,662 6.3 -23.1°
Maximum altitude 05:01:19 83° 277° (W) 956 3.8 -22.0°
Drops below altitude 10° 05:07:26 10° 7° (N) 2,669 6.3 -20.9°
Sets 05:09:56 0° 8° (N) 3,620 7.0 -20.5°
